COSMOS 1275 DEB, 42189

Orbit data source: Space-Track

COSMOS 1275 DEB, 42189 is space debris in LEO originally from a launch on Thu, 04 Jun 1981 UTC launched from the Plesetsk Missile And Space Complex (PKMTR). Debris objects in space refer to the collection of defunct objects orbiting the Earth. Examples of debris include non-operational satellites, rocket bodies, and fragments generated from explosions, collisions, or faulty payload assembly.

Loading next visibility...
Identifier
42189, 1981-053TD
Orbit
LEO
Country
Flag of CISCIS
Related business
Manufacturer
Unknown
Mission
Spacecraft
Bus & Motor
Unknown
Mass
Unknown
Launch date (UTC)
1981-06-04 (45 years ago)
Launch vehicle
Unknown
Launch site
Plesetsk Missile And Space Complex (PKMTR)
Object type
Payload
Rocket body
Debris
Shape & HBR
Unknown shape, 0.1 m
Radar Cross Section
Small (<0.1 m²)

Expand to show TLE details & history
Last TLE update: 1 day ago

TLE from 1 day ago
0 COSMOS 1275 DEB
1 42189U 81053TD  25352.49924977  .00000910  00000-0  93595-3 0  9993
2 42189  83.0182  64.3612 0124670 186.6041 173.3478 13.71817484584202
Epoch: 2025-12-18T11:58Z
TLE epoch observation values (Epoch: 2025-12-18T11:58:55.180Z)
Latitude
0.00004°
Longitude
157.27741°
Altitude
1,087.261 km
Speed
7.263 km/s
True Right ascension
04h 17m 26s
True Declination
0° 00' 00"
Sunlit
Object was in full shadow at epoch
Visualization orbit readout
Latitude
Unknown
Longitude
Unknown
Altitude
Unknown
Speed
Unknown
Apparent Right ascension
Unknown
Apparent Declination
Unknown
Sunlit
N/A
Visualization observer readout
Local Sidereal Time
12:42:30
Azimuth
Unknown
Elevation
Unknown
Doppler factor
Unknown
Orbital elements
Apogee altitude
1,082.064 km
Perigee altitude
898.342 km
Semi-major axis
7,368.34 km
Eccentricity
0.01247
Inclination
83.0182°
RAAN
64.3612°
Arg. of periapsis
186.6041°
True anomaly
173.51077°
Mean anomaly
173.3478°
Eccentric anomaly
173.42953°
Mean motion
3.43154 °/min
Orbital period
104.91 mins
BSTAR
0.00093595
Loading maneuver chart data...
Computing Atmospheric mass density...
Loading historical data...
Loading historical data...
Loading historical data...
Loading historical data...
Loading historical data...
Loading historical data...
Loading historical data...

Documentation

Showing up to 5 results
|